Starlink 1279

operational
NORAD ID: 45360 Int'l Des: 2020-019 Owner: SPXS Country: US Constellation: starlink
LEOCIRCULARSTARLINK_TYPE

Starlink 1279について

説明を読み込み中...

リアルタイム位置

3D地球を読み込み中...

次回通過

高度履歴

Altitude vs Time

uPlot chart will show altitude changes over time

軌道要素

1 45360U 20019A 25258.25147462 .00000649 00000-0 62498-4 0 9995
2 45360 53.0505 204.1897 0001647 87.2445 272.8733 15.06394460303698
Epoch: Sep 15, 2025 • Age: 9 hours

現在のステータス

高度 551.5 km
速度 7.59 km/s
衛星直下点 -14.59°S, 36.29°W
打ち上げ日 Mar 18, 2020
運用期間 5.4 years
タイプ internet

技術仕様

分類 Payload
質量 260.00 kg
乾燥質量 248.00 kg
総質量 260.00 kg
長さ 0.20 m
直径 2.80 m
スパン 9.00 m
形状 Box + pan
製造者 SPXS
バスタイプ Starlink
フェーズステータス In Orbit
所有者/国 SPXS/US

大規模コンステレーション

Loading constellations...